Regional Weather Roundup
Issued by NWS Cleveland, OH

Home | Current Version | Previous Version | Text Only | Print | Product List | Glossary Off
Versions: 1 2 3 4 5 6 7 8 9 10 11 12 13 14 15 16 17 18 19 20 21 22 23 24 25 26 27 28 29 30 31 32 33 34 35 36 37 38 39 40 41 42 43 44 45 46 47 48 49 50

000
ASUS41 KCLE 231110
RWRCLE
OHIO REGIONAL WEATHER ROUNDUP
NATIONAL WEATHER SERVICE WILMINGTON, OH
600 AM EST TUE JAN 23 2018

NOTE: "FAIR" INDICATES FEW OR NO CLOUDS BELOW 12,000 FEET WITH NO
SIGNIFICANT WEATHER AND/OR OBSTRUCTIONS TO VISIBILITY.

OHZ001>008-015>018-024>027-034-035-043-044-231200-
   NORTHWEST OHIO

CITY           SKY/WX    TMP DP  RH WIND       PRES   REMARKS
DEFIANCE       LGT RAIN  36  33  89 SW9       29.60R
FINDLAY        LGT RAIN  38  33  82 W15       29.60R
TOLEDO EXPRESS LGT RAIN  39  35  86 SW18G26   29.57R
TOLEDO EXEC    CLOUDY    38  34  85 SW15      29.59R
LIMA           LGT RAIN  37  36  96 SW13      29.61R
$$

OHZ009>014-019>023-028>033-038-089-231200-
   NORTHEAST OHIO

CITY           SKY/WX    TMP DP  RH WIND       PRES   REMARKS
CLE-HOPKINS    MOCLDY    43  35  73 S5        29.59S
CLE-LAKEFRONT  CLOUDY    46  37  71 SW9       29.56S
CUY CO. ARPT   NOT AVBL
LORAIN-ELYRIA  FAIR      40  34  79 S8        29.57S
ASHTABULA      CLOUDY    46  44  93 SW7       29.57S
AKRON-CANTON   CLOUDY    46  41  82 SW9       29.59R
WOOSTER        MOCLDY    40  37  89 SW3       29.59F
MANSFIELD      FAIR      36  34  92 S6        29.57F
YOUNGSTOWN     CLOUDY    46  44  93 S7        29.57S
$$

OHZ042-051>053-060>062-070>072-077>081-231200-
  SOUTHWEST OHIO

CITY           SKY/WX    TMP DP  RH WIND       PRES   REMARKS
CINC-COVINGTON CLOUDY    39  34  82 W14G28    29.70R
CINC-LUNKEN    CLOUDY    43  33  68 SW26G43   29.72R
HAMILTON       LGT RAIN  39  35  86 SW13G24   29.71R
DAYTON         LGT RAIN  37  37 100 W14       29.66R
WRIGHT-PAT AFB CLOUDY    39  35  85 SW10      29.65R
DAYTON GENERAL CLOUDY    40  34  79 W10       29.66R
WILMINGTON     CLOUDY    43  32  65 SW24G38   29.65R
$$

OHZ036-037-039>041-045>050-054>059-063>069-073>076-082>088-231200-
  CENTRAL AND SOUTHEAST OHIO

CITY           SKY/WX    TMP DP  RH WIND       PRES   REMARKS
COLUMBUS       CLOUDY    42  38  85 S7        29.63R
OSU AIRPORT    CLOUDY    41  37  86 SW6       29.62S
BOLTON FIELD   MOCLDY    39  35  84 S7        29.63R
RICKENBACK AFB MOCLDY    42  35  76 SW16      29.64R
NEWARK         CLOUDY    44  33  65 SW7       29.62S
MARION         CLOUDY    38  34  85 W9        29.61R
LANCASTER      CLOUDY    45  33  63 SW12G21   29.64S
ZANESVILLE     FAIR      47  31  53 SW8       29.65R
NEW PHILLY     MOCLDY    48  39  71 VRB7      29.62R
$$




USA.gov is the U.S. government's official web portal to all federal, state and local government web resources and services.